Showing default

QUBE, 60476

Orbit data source: Space-Track

QUBE, 60476 is a payload satellite owned by ZfT (DE) in SSO that was launched on Fri, 16 Aug 2024 UTC via an FALCON 9 launch vehicle from the Air Force Western Test Range (AFWTR). Payload-class satellites include a variety of spacecraft equipped with specific instruments for various scientific and technological missions. These include communications satellites like Starlink; space stations such as the ISS; scientific satellites like the Hubble; Earth observation satellites from companies like Planet Labs, Umbra, and HawkEye 360; GPS; miniature CubeSats for education and research; and military/defense satellites.

Loading next visibility...
Identifier
60476, 2024-149J
Orbit
SSO
Country
Flag of DEDE / GER
Related business
Manufacturer
ZfT
Mission
Operational Commercial Communications
Bus & Motor
CUBESAT 3U, Unknown motor
Mass
4 kg wet, 4 kg dry
Launch date (UTC)
2024-08-16 (2 years ago)
Launch vehicle
FALCON 9
Launch site
Air Force Western Test Range (AFWTR)
Object type
Payload
Rocket body
Debris
Shape & HBR
Box, 1.0 m
Radar Cross Section
0.035 m², Medium (>0.1 m² and < 1m²)

Expand to show TLE details & history
Last TLE update: 11 hours ago

TLE from 11 hours ago
0 QUBE
1 60476U 24149J   26265.23819134  .00024996  00000-0  41822-3 0  9995
2 60476  97.3748 353.8423 0001909 198.5326 161.5858 15.51878145117495
Epoch: 2026-09-22T05:42Z
TLE epoch observation values (Epoch: 2026-09-22T05:42:59.731Z)
Latitude
0.00003°
Longitude
-93.01312°
Altitude
415.607 km
Speed
7.661 km/s
True Right ascension
23h 35m 22s
True Declination
0° 00' 00"
Sunlit
Object was in full shadow at epoch
Visualization orbit readout
Latitude
Unknown
Longitude
Unknown
Altitude
Unknown
Speed
Unknown
Apparent Right ascension
Unknown
Apparent Declination
Unknown
Sunlit
N/A
Visualization observer readout
Local Sidereal Time
09:22:33
Azimuth
Unknown
Elevation
Unknown
Doppler factor
Unknown
Orbital elements
Apogee altitude
409.46 km
Perigee altitude
406.869 km
Semi-major axis
6,786.302 km
Eccentricity
0.00019
Inclination
97.3748°
RAAN
353.8423°
Arg. of periapsis
198.5326°
True anomaly
161.59271°
Mean anomaly
161.5858°
Eccentric anomaly
161.58925°
Mean motion
3.88234 °/min
Orbital period
92.73 mins
BSTAR
0.00041822
Loading maneuver chart data...
Computing Atmospheric mass density...
Loading historical data...
Loading historical data...
Loading historical data...
Loading historical data...
Loading historical data...
Loading historical data...
Loading historical data...

Documentation

Showing up to 5 results
|